Regional Weather Roundup
Issued by NWS

Home | Current Version | Previous Version | Text Only | Print | Product List | Glossary Off
Versions: 1 2 3 4 5 6 7 8 9 10 11 12 13 14 15 16 17 18 19 20 21 22 23 24 25 26 27 28 29 30 31 32 33 34 35 36 37 38 39 40 41 42 43 44 45 46 47 48 49 50

929
ASUS43 KOAX 280110
RWRNE

WEATHER ROUNDUP FOR NEBRASKA
NATIONAL WEATHER SERVICE OMAHA NE
800 PM CDT SAT AUG 27 2016

NOTES: SATELLITE DATA IS BEING USED TO AUGMENT CLOUD COVER ABOVE
       12000 FEET.
       "FAIR" INDICATES FEW OR NO CLOUDS BELOW 12,000 FEET WITH NO
       SIGNIFICANT WEATHER AND/OR OBSTRUCTIONS TO VISIBILITY.

  * THESE STATIONS DO NOT REPORT WEATHER SUCH AS RAIN...SNOW OR FOG.

NEZ001>004-019>022-054>056-280200-
NEBRASKA PANHANDLE

CITY           SKY/WX    TMP DP  RH WIND       PRES   REMARKS
SCOTTSBLUFF    CLEAR     78  56  46 E7        29.97S
ALLIANCE       CLEAR     75  52  44 SE9       29.99R
CHADRON        CLEAR     81  43  26 S9        29.89S
KIMBALL        CLEAR     73  48  42 SE8       30.04S
SIDNEY         CLEAR     76  54  46 SE15      30.04S
$$

NEZ057>060-069>072-079>082-280200-
SOUTHWEST NEBRASKA

CITY           SKY/WX    TMP DP  RH WIND       PRES   REMARKS
NORTH PLATTE   CLOUDY    77  63  61 SE6       29.99R
IMPERIAL       CLEAR     76  61  59 SE9       30.00F
LEXINGTON      CLOUDY    78  65  65 SE6       30.00S
MCCOOK         CLOUDY    79  64  60 SE9       29.98S
OGALLALA       CLOUDY    80  55  42 S7        30.00S
$$

NEZ005>010-023>029-035>040-094-280200-
NORTH CENTRAL NEBRASKA

CITY           SKY/WX    TMP DP  RH WIND       PRES   REMARKS
VALENTINE      CLEAR     79  54  41 S7        29.93S
AINSWORTH      CLEAR     78  62  57 SE5       29.95S
BROKEN BOW     CLOUDY    77  63  61 S10       29.99S
O`NEILL        CLEAR     80  60  51 S8        29.97S
ORD            CLEAR     78  61  55 S8        29.97R
THEDFORD       CLEAR     82  60  47 S13G20    29.98S
$$

NEZ041-046>049-061>064-073>077-083>087-280200-
SOUTH CENTRAL NEBRASKA

CITY           SKY/WX    TMP DP  RH WIND       PRES   REMARKS
GRAND ISLAND   CLEAR     77  65  66 SE8       30.00R
AURORA         CLEAR     74  67  79 CALM      30.00R
HASTINGS       CLEAR     78  63  59 S9        30.01R
HEBRON         CLEAR     75  68  80 SE5       30.00R
HOLDREGE       CLOUDY    74  64  71 S6        30.00S
KEARNEY *      CLOUDY    75  63  64 S6        29.99R
YORK           CLEAR     75  66  73 S5        30.00R
$$

NEZ011>018-030>034-042>045-280200-
NORTHEAST NEBRASKA

CITY           SKY/WX    TMP DP  RH WIND       PRES   REMARKS
NORFOLK        CLEAR     74  63  68 SE6       29.99R
ALBION         CLEAR     75  64  69 SE6       29.99R
BLAIR          CLEAR     78  67  70 CALM      30.00S
FREMONT        CLEAR     75  66  75 SE5       30.00R
TEKAMAH        CLEAR     75  68  78 SE3       29.99R
WAYNE          CLEAR     72  68  87 SE5       30.00R
$$

NEZ050>053-065>068-078-088>093-280200-
SOUTHEAST NEBRASKA

CITY           SKY/WX    TMP DP  RH WIND       PRES   REMARKS
LINCOLN        CLEAR     76  65  68 S7        29.99S
OMAHA EPPLEY   PTCLDY    78  67  68 SE9       29.99R
BEATRICE       CLEAR     79  67  66 SE5       30.00S
FALLS CITY     CLEAR     79  70  74 SE3       29.99R
NEBRASKA CITY  CLEAR     77  67  73 SE5       30.00S
PLATTSMOUTH    CLEAR     76  69  79 SE5       30.00S
$$

NEZ044-045-051>053-067-280200-
OMAHA AREA

CITY           SKY/WX    TMP DP  RH WIND       PRES   REMARKS
OMAHA EPPLEY   PTCLDY    78  67  68 SE9       29.99R
BLAIR          CLEAR     78  67  70 CALM      30.00S
FREMONT        CLEAR     75  66  75 SE5       30.00R
MILLARD        CLEAR     78  69  73 SE5       29.99R
OFFUTT AFB     CLEAR     75  70  84 E6        29.98S
PLATTSMOUTH    CLEAR     76  69  79 SE5       30.00S
WAHOO          FAIR      74  69  85 SE6       29.99R
$$




USA.gov is the U.S. government's official web portal to all federal, state and local government web resources and services.